Year,Month,Day,Hour,Minute,Value (Times are PST for temperature in C)
2018,07,06,00,00,14.10
2018,07,06,00,01,14.00
2018,07,06,00,02,14.00
2018,07,06,00,03,14.00
2018,07,06,00,04,14.00
2018,07,06,00,05,14.00
2018,07,06,00,06,14.00
2018,07,06,00,07,13.90
2018,07,06,00,08,13.90
2018,07,06,00,09,13.90
2018,07,06,00,10,13.90
2018,07,06,00,11,13.90
2018,07,06,00,12,13.90
2018,07,06,00,13,13.90
2018,07,06,00,14,13.90
2018,07,06,00,15,14.00
2018,07,06,00,16,14.00
2018,07,06,00,17,14.00
2018,07,06,00,18,14.00
2018,07,06,00,19,14.10
2018,07,06,00,20,14.10
2018,07,06,00,21,14.10
2018,07,06,00,22,14.10
2018,07,06,00,23,14.10
2018,07,06,00,24,14.10
2018,07,06,00,25,14.10
2018,07,06,00,26,14.10
2018,07,06,00,27,14.10
2018,07,06,00,28,14.10
2018,07,06,00,29,14.10
2018,07,06,00,30,14.10
2018,07,06,00,31,14.10
2018,07,06,00,32,14.10
2018,07,06,00,33,14.10
2018,07,06,00,34,14.10
2018,07,06,00,35,14.10
2018,07,06,00,36,14.10
2018,07,06,00,37,14.10
2018,07,06,00,38,14.10
2018,07,06,00,39,14.10
2018,07,06,00,40,14.10
2018,07,06,00,41,14.10
2018,07,06,00,42,14.10
2018,07,06,00,43,14.20
2018,07,06,00,44,14.20
2018,07,06,00,45,14.20
2018,07,06,00,46,14.30
2018,07,06,00,47,14.30
2018,07,06,00,48,14.30
2018,07,06,00,49,14.40
2018,07,06,00,50,14.40
2018,07,06,00,51,14.50
2018,07,06,00,52,14.50
2018,07,06,00,53,14.60
2018,07,06,00,54,14.60
2018,07,06,00,55,14.70
2018,07,06,00,56,14.70
2018,07,06,00,57,14.70
2018,07,06,00,58,14.70
2018,07,06,00,59,14.70
2018,07,06,01,00,14.80
2018,07,06,01,01,14.80
2018,07,06,01,02,14.80
2018,07,06,01,03,14.80
2018,07,06,01,04,14.80
2018,07,06,01,05,14.80
2018,07,06,01,06,14.90
2018,07,06,01,07,14.90
2018,07,06,01,08,14.90
2018,07,06,01,09,14.90
2018,07,06,01,10,14.90
2018,07,06,01,11,14.90
2018,07,06,01,12,14.90
2018,07,06,01,13,15.00
2018,07,06,01,14,15.00
2018,07,06,01,15,15.00
2018,07,06,01,16,15.00
2018,07,06,01,17,15.00
2018,07,06,01,18,15.00
2018,07,06,01,19,15.00
2018,07,06,01,20,15.00
2018,07,06,01,21,15.00
2018,07,06,01,22,15.00
2018,07,06,01,23,15.00
2018,07,06,01,24,15.00
2018,07,06,01,25,15.00
2018,07,06,01,26,15.00
2018,07,06,01,27,15.00
2018,07,06,01,28,15.00
2018,07,06,01,29,15.00
2018,07,06,01,30,15.00
2018,07,06,01,31,15.00
2018,07,06,01,32,15.00
2018,07,06,01,33,15.10
2018,07,06,01,34,15.10
2018,07,06,01,35,15.10
2018,07,06,01,36,15.10
2018,07,06,01,37,15.10
2018,07,06,01,38,15.20
2018,07,06,01,39,15.20
2018,07,06,01,40,15.20
2018,07,06,01,41,15.20
2018,07,06,01,42,15.20
2018,07,06,01,43,15.20
2018,07,06,01,44,15.20
2018,07,06,01,45,15.30
2018,07,06,01,46,15.30
2018,07,06,01,47,15.30
2018,07,06,01,48,15.30
2018,07,06,01,49,15.30
2018,07,06,01,50,15.30
2018,07,06,01,51,15.30
2018,07,06,01,52,15.30
2018,07,06,01,53,15.20
2018,07,06,01,54,15.20
2018,07,06,01,55,15.10
2018,07,06,01,56,15.00
2018,07,06,01,57,14.90
2018,07,06,01,58,14.90
2018,07,06,01,59,14.80
2018,07,06,02,00,14.70
2018,07,06,02,01,14.60
2018,07,06,02,02,14.60
2018,07,06,02,03,14.50
2018,07,06,02,04,14.40
2018,07,06,02,05,14.40
2018,07,06,02,06,14.40
2018,07,06,02,07,14.30
2018,07,06,02,08,14.30
2018,07,06,02,09,14.20
2018,07,06,02,10,14.20
2018,07,06,02,11,14.20
2018,07,06,02,12,14.10
2018,07,06,02,13,14.10
2018,07,06,02,14,14.00
2018,07,06,02,15,14.00
2018,07,06,02,16,13.90
2018,07,06,02,17,13.90
2018,07,06,02,18,13.80
2018,07,06,02,19,13.80
2018,07,06,02,20,13.80
2018,07,06,02,21,13.70
2018,07,06,02,22,13.70
2018,07,06,02,23,13.70
2018,07,06,02,24,13.60
2018,07,06,02,25,13.60
2018,07,06,02,26,13.60
2018,07,06,02,27,13.50
2018,07,06,02,28,13.50
2018,07,06,02,29,13.50
2018,07,06,02,30,13.50
2018,07,06,02,31,13.40
2018,07,06,02,32,13.40
2018,07,06,02,33,13.40
2018,07,06,02,34,13.40
2018,07,06,02,35,13.50
2018,07,06,02,36,13.50
2018,07,06,02,37,13.50
2018,07,06,02,38,13.50
2018,07,06,02,39,13.50
2018,07,06,02,40,13.50
2018,07,06,02,41,13.50
2018,07,06,02,42,13.50
2018,07,06,02,43,13.50
2018,07,06,02,44,13.50
2018,07,06,02,45,13.60
2018,07,06,02,46,13.60
2018,07,06,02,47,13.60
2018,07,06,02,48,13.60
2018,07,06,02,49,13.60
2018,07,06,02,50,13.60
2018,07,06,02,51,13.60
2018,07,06,02,52,13.60
2018,07,06,02,53,13.60
2018,07,06,02,54,13.70
2018,07,06,02,55,13.70
2018,07,06,02,56,13.70
2018,07,06,02,57,13.80
2018,07,06,02,58,13.80
2018,07,06,02,59,13.80
2018,07,06,03,00,13.80
2018,07,06,03,01,13.90
2018,07,06,03,02,13.90
2018,07,06,03,03,13.90
2018,07,06,03,04,13.90
2018,07,06,03,05,13.90
2018,07,06,03,06,14.00
2018,07,06,03,07,14.00
2018,07,06,03,08,14.00
2018,07,06,03,09,14.00
2018,07,06,03,10,14.10
2018,07,06,03,11,14.10
2018,07,06,03,12,14.10
2018,07,06,03,13,14.10
2018,07,06,03,14,14.10
2018,07,06,03,15,14.10
2018,07,06,03,16,14.10
2018,07,06,03,17,14.10
2018,07,06,03,18,14.10
2018,07,06,03,19,14.10
2018,07,06,03,20,14.10
2018,07,06,03,21,14.10
2018,07,06,03,22,14.10
2018,07,06,03,23,14.10
2018,07,06,03,24,14.10
2018,07,06,03,25,14.10
2018,07,06,03,26,14.10
2018,07,06,03,27,14.10
2018,07,06,03,28,14.10
2018,07,06,03,29,14.10
2018,07,06,03,30,14.00
2018,07,06,03,31,13.90
2018,07,06,03,32,13.90
2018,07,06,03,33,13.80
2018,07,06,03,34,13.80
2018,07,06,03,35,13.80
2018,07,06,03,36,13.80
2018,07,06,03,37,13.70
2018,07,06,03,38,13.70
2018,07,06,03,39,13.70
2018,07,06,03,40,13.70
2018,07,06,03,41,13.70
2018,07,06,03,42,13.70
2018,07,06,03,43,13.60
2018,07,06,03,44,13.60
2018,07,06,03,45,13.60
2018,07,06,03,46,13.60
2018,07,06,03,47,13.50
2018,07,06,03,48,13.50
2018,07,06,03,49,13.40
2018,07,06,03,50,13.40
2018,07,06,03,51,13.30
2018,07,06,03,52,13.30
2018,07,06,03,53,13.30
2018,07,06,03,54,13.30
2018,07,06,03,55,13.20
2018,07,06,03,56,13.20
2018,07,06,03,57,13.20
2018,07,06,03,58,13.20
2018,07,06,03,59,13.20
2018,07,06,04,00,13.10
2018,07,06,04,01,13.10
2018,07,06,04,02,13.10
2018,07,06,04,03,13.10
2018,07,06,04,04,13.00
2018,07,06,04,05,13.00
2018,07,06,04,06,12.90
2018,07,06,04,07,12.90
2018,07,06,04,08,12.90
2018,07,06,04,09,12.90
2018,07,06,04,10,12.90
2018,07,06,04,11,12.80
2018,07,06,04,12,12.80
2018,07,06,04,13,12.80
2018,07,06,04,14,12.80
2018,07,06,04,15,12.80
2018,07,06,04,16,12.80
2018,07,06,04,17,12.70
2018,07,06,04,18,12.70
2018,07,06,04,19,12.70
2018,07,06,04,20,12.70
2018,07,06,04,21,12.70
2018,07,06,04,22,12.70
2018,07,06,04,23,12.70
2018,07,06,04,24,12.70
2018,07,06,04,25,12.60
2018,07,06,04,26,12.60
2018,07,06,04,27,12.60
2018,07,06,04,28,12.60
2018,07,06,04,29,12.60
2018,07,06,04,30,12.60
2018,07,06,04,31,12.60
2018,07,06,04,32,12.50
2018,07,06,04,33,12.50
2018,07,06,04,34,12.50
2018,07,06,04,35,12.50
2018,07,06,04,36,12.50
2018,07,06,04,37,12.50
2018,07,06,04,38,12.50
2018,07,06,04,39,12.50
2018,07,06,04,40,12.50
2018,07,06,04,41,12.40
2018,07,06,04,42,12.40
2018,07,06,04,43,12.40
2018,07,06,04,44,12.40
2018,07,06,04,45,12.40
2018,07,06,04,46,12.40
2018,07,06,04,47,12.40
2018,07,06,04,48,12.40
2018,07,06,04,49,12.40
2018,07,06,04,50,12.40
2018,07,06,04,51,12.40
2018,07,06,04,52,12.40
2018,07,06,04,53,12.40
2018,07,06,04,54,12.40
2018,07,06,04,55,12.40
2018,07,06,04,56,12.40
2018,07,06,04,57,12.40
2018,07,06,04,58,12.40
2018,07,06,04,59,12.40
2018,07,06,05,00,12.40
2018,07,06,05,01,12.40
2018,07,06,05,02,12.40
2018,07,06,05,03,12.40
2018,07,06,05,04,12.40
2018,07,06,05,05,12.40
2018,07,06,05,06,12.40
2018,07,06,05,07,12.40
2018,07,06,05,08,12.40
2018,07,06,05,09,12.40
2018,07,06,05,10,12.40
2018,07,06,05,11,12.40
2018,07,06,05,12,12.40
2018,07,06,05,13,12.40
2018,07,06,05,14,12.40
2018,07,06,05,15,12.40
2018,07,06,05,16,12.40
2018,07,06,05,17,12.40
2018,07,06,05,18,12.40
2018,07,06,05,19,12.40
2018,07,06,05,20,12.40
2018,07,06,05,21,12.40
2018,07,06,05,22,12.40
2018,07,06,05,23,12.40
2018,07,06,05,24,12.40
2018,07,06,05,25,12.40
2018,07,06,05,26,12.40
2018,07,06,05,27,12.40
2018,07,06,05,28,12.40
2018,07,06,05,29,12.40
2018,07,06,05,30,12.40
2018,07,06,05,31,12.40
2018,07,06,05,32,12.40
2018,07,06,05,33,12.40
2018,07,06,05,34,12.40
2018,07,06,05,35,12.40
2018,07,06,05,36,12.40
2018,07,06,05,37,12.40
2018,07,06,05,38,12.40
2018,07,06,05,39,12.40
2018,07,06,05,40,12.40
2018,07,06,05,41,12.40
2018,07,06,05,42,12.40
2018,07,06,05,43,12.40
2018,07,06,05,44,12.40
2018,07,06,05,45,12.40
2018,07,06,05,46,12.40
2018,07,06,05,47,12.40
2018,07,06,05,48,12.40
2018,07,06,05,49,12.40
2018,07,06,05,50,12.40
2018,07,06,05,51,12.40
2018,07,06,05,52,12.40
2018,07,06,05,53,12.40
2018,07,06,05,54,12.40
2018,07,06,05,55,12.30
2018,07,06,05,56,12.30
2018,07,06,05,57,12.30
2018,07,06,05,58,12.30
2018,07,06,05,59,12.30
2018,07,06,06,00,12.30
2018,07,06,06,01,12.30
2018,07,06,06,02,12.30
2018,07,06,06,03,12.30
2018,07,06,06,04,12.30
2018,07,06,06,05,12.30
2018,07,06,06,06,12.30
2018,07,06,06,07,12.30
2018,07,06,06,08,12.30
2018,07,06,06,09,12.30
2018,07,06,06,10,12.30
2018,07,06,06,11,12.30
2018,07,06,06,12,12.30
2018,07,06,06,13,12.30
2018,07,06,06,14,12.30
2018,07,06,06,15,12.30
2018,07,06,06,16,12.30
2018,07,06,06,17,12.30
2018,07,06,06,18,12.30
2018,07,06,06,19,12.30
2018,07,06,06,20,12.40
2018,07,06,06,21,12.40
2018,07,06,06,22,12.40
2018,07,06,06,23,12.40
2018,07,06,06,24,12.40
2018,07,06,06,25,12.40
2018,07,06,06,26,12.40
2018,07,06,06,27,12.40
2018,07,06,06,28,12.40
2018,07,06,06,29,12.40
2018,07,06,06,30,12.40
2018,07,06,06,31,12.50
2018,07,06,06,32,12.50
2018,07,06,06,33,12.50
2018,07,06,06,34,12.50
2018,07,06,06,35,12.60
2018,07,06,06,36,12.60
2018,07,06,06,37,12.60
2018,07,06,06,38,12.60
2018,07,06,06,39,12.60
2018,07,06,06,40,12.60
2018,07,06,06,41,12.60
2018,07,06,06,42,12.60
2018,07,06,06,43,12.60
2018,07,06,06,44,12.60
2018,07,06,06,45,12.60
2018,07,06,06,46,12.60
2018,07,06,06,47,12.60
2018,07,06,06,48,12.60
2018,07,06,06,49,12.70
2018,07,06,06,50,12.60
2018,07,06,06,51,12.70
2018,07,06,06,52,12.70
2018,07,06,06,53,12.70
2018,07,06,06,54,12.70
2018,07,06,06,55,12.70
2018,07,06,06,56,12.70
2018,07,06,06,57,12.70
2018,07,06,06,58,12.80
2018,07,06,06,59,12.80
2018,07,06,07,00,12.80
2018,07,06,07,01,12.80
2018,07,06,07,02,12.80
2018,07,06,07,03,12.90
2018,07,06,07,04,12.90
2018,07,06,07,05,12.90
2018,07,06,07,06,12.90
2018,07,06,07,07,12.90
2018,07,06,07,08,13.00
2018,07,06,07,09,13.00
2018,07,06,07,10,13.10
2018,07,06,07,11,13.10
2018,07,06,07,12,13.10
2018,07,06,07,13,13.10
2018,07,06,07,14,13.20
2018,07,06,07,15,13.20
2018,07,06,07,16,13.20
2018,07,06,07,17,13.20
2018,07,06,07,18,13.30
2018,07,06,07,19,13.30
2018,07,06,07,20,13.30
2018,07,06,07,21,13.30
2018,07,06,07,22,13.30
2018,07,06,07,23,13.40
2018,07,06,07,24,13.40
2018,07,06,07,25,13.40
2018,07,06,07,26,13.40
2018,07,06,07,27,13.50
2018,07,06,07,28,13.50
2018,07,06,07,29,13.60
2018,07,06,07,30,13.60
2018,07,06,07,31,13.70
2018,07,06,07,32,13.70
2018,07,06,07,33,13.70
2018,07,06,07,34,13.80
2018,07,06,07,35,13.80
2018,07,06,07,36,13.80
2018,07,06,07,37,13.80
2018,07,06,07,38,13.90
2018,07,06,07,39,13.90
2018,07,06,07,40,14.00
2018,07,06,07,41,14.00
2018,07,06,07,42,14.10
2018,07,06,07,43,14.10
2018,07,06,07,44,14.20
2018,07,06,07,45,14.20
2018,07,06,07,46,14.30
2018,07,06,07,47,14.30
2018,07,06,07,48,14.30
2018,07,06,07,49,14.40
2018,07,06,07,50,14.40
2018,07,06,07,51,14.40
2018,07,06,07,52,14.50
2018,07,06,07,53,14.50
2018,07,06,07,54,14.50
2018,07,06,07,55,14.50
2018,07,06,07,56,14.50
2018,07,06,07,57,14.50
2018,07,06,07,58,14.60
2018,07,06,07,59,14.60
2018,07,06,08,00,14.60
2018,07,06,08,01,14.70
2018,07,06,08,02,14.70
2018,07,06,08,03,14.70
2018,07,06,08,04,14.80
2018,07,06,08,05,14.80
2018,07,06,08,06,14.90
2018,07,06,08,07,14.90
2018,07,06,08,08,15.00
2018,07,06,08,09,15.10
2018,07,06,08,10,15.10
2018,07,06,08,11,15.20
2018,07,06,08,12,15.20
2018,07,06,08,13,15.30
2018,07,06,08,14,15.40
2018,07,06,08,15,15.50
2018,07,06,08,16,15.60
2018,07,06,08,17,15.70
2018,07,06,08,18,15.80
2018,07,06,08,19,15.90
2018,07,06,08,20,15.90
2018,07,06,08,21,16.00
2018,07,06,08,22,16.00
2018,07,06,08,23,16.00
2018,07,06,08,24,16.10
2018,07,06,08,25,16.10
2018,07,06,08,26,16.10
2018,07,06,08,27,16.20
2018,07,06,08,28,16.20
2018,07,06,08,29,16.30
2018,07,06,08,30,16.30
2018,07,06,08,31,16.40
2018,07,06,08,32,16.40
2018,07,06,08,33,16.50
2018,07,06,08,34,16.50
2018,07,06,08,35,16.60
2018,07,06,08,36,16.70
2018,07,06,08,37,16.70
2018,07,06,08,38,16.80
2018,07,06,08,39,16.90
2018,07,06,08,40,16.90
2018,07,06,08,41,17.00
2018,07,06,08,42,17.10
2018,07,06,08,43,17.20
2018,07,06,08,44,17.20
2018,07,06,08,45,17.30
2018,07,06,08,46,17.30
2018,07,06,08,47,17.30
2018,07,06,08,48,17.30
2018,07,06,08,49,17.30
2018,07,06,08,50,17.30
2018,07,06,08,51,17.30
2018,07,06,08,52,17.30
2018,07,06,08,53,17.30
2018,07,06,08,54,17.40
2018,07,06,08,55,17.40
2018,07,06,08,56,17.40
2018,07,06,08,57,17.40
2018,07,06,08,58,17.50
2018,07,06,08,59,17.50
2018,07,06,09,00,17.60
2018,07,06,09,01,17.60
2018,07,06,09,02,17.60
2018,07,06,09,03,17.60
2018,07,06,09,04,17.60
2018,07,06,09,05,17.60
2018,07,06,09,06,17.70
2018,07,06,09,07,17.70
2018,07,06,09,08,17.80
2018,07,06,09,09,17.90
2018,07,06,09,10,17.90
2018,07,06,09,11,18.00
2018,07,06,09,12,18.10
2018,07,06,09,13,18.10
2018,07,06,09,14,18.20
2018,07,06,09,15,18.20
2018,07,06,09,16,18.30
2018,07,06,09,17,18.40
2018,07,06,09,18,18.40
2018,07,06,09,19,18.50
2018,07,06,09,20,18.60
2018,07,06,09,21,18.60
2018,07,06,09,22,18.60
2018,07,06,09,23,18.60
2018,07,06,09,24,18.60
2018,07,06,09,25,18.70
2018,07,06,09,26,18.70
2018,07,06,09,27,18.70
2018,07,06,09,28,18.80
2018,07,06,09,29,18.80
2018,07,06,09,30,18.80
2018,07,06,09,31,18.80
2018,07,06,09,32,18.80
2018,07,06,09,33,18.70
2018,07,06,09,34,18.70
2018,07,06,09,35,18.70
2018,07,06,09,36,18.70
2018,07,06,09,37,18.80
2018,07,06,09,38,18.80
2018,07,06,09,39,18.80
2018,07,06,09,40,18.90
2018,07,06,09,41,19.00
2018,07,06,09,42,19.00
2018,07,06,09,43,19.10
2018,07,06,09,44,19.10
2018,07,06,09,45,19.10
2018,07,06,09,46,19.10
2018,07,06,09,47,19.10
2018,07,06,09,48,19.00
2018,07,06,09,49,19.00
2018,07,06,09,50,18.90
2018,07,06,09,51,19.00
2018,07,06,09,52,19.00
2018,07,06,09,53,19.00
2018,07,06,09,54,19.00
2018,07,06,09,55,18.90
2018,07,06,09,56,18.90
2018,07,06,09,57,18.90
2018,07,06,09,58,18.90
2018,07,06,09,59,18.90
2018,07,06,10,00,18.90
2018,07,06,10,01,18.80
2018,07,06,10,02,18.80
2018,07,06,10,03,18.80
2018,07,06,10,04,18.80
2018,07,06,10,05,18.80
2018,07,06,10,06,18.90
2018,07,06,10,07,19.00
2018,07,06,10,08,19.00
2018,07,06,10,09,19.00
2018,07,06,10,10,19.10
2018,07,06,10,11,19.20
2018,07,06,10,12,19.20
2018,07,06,10,13,19.30
2018,07,06,10,14,19.30
2018,07,06,10,15,19.20
2018,07,06,10,16,19.20
2018,07,06,10,17,19.10
2018,07,06,10,18,19.00
2018,07,06,10,19,18.90
2018,07,06,10,20,18.80
2018,07,06,10,21,18.80
2018,07,06,10,22,18.70
2018,07,06,10,23,18.70
2018,07,06,10,24,18.60
2018,07,06,10,25,18.50
2018,07,06,10,26,18.50
2018,07,06,10,27,18.40
2018,07,06,10,28,18.30
2018,07,06,10,29,18.20
2018,07,06,10,30,18.10
2018,07,06,10,31,18.00
2018,07,06,10,32,17.90
2018,07,06,10,33,17.80
2018,07,06,10,34,17.70
2018,07,06,10,35,17.70
2018,07,06,10,36,17.60
2018,07,06,10,37,17.60
2018,07,06,10,38,17.60
2018,07,06,10,39,17.60
2018,07,06,10,40,17.60
2018,07,06,10,41,17.60
2018,07,06,10,42,17.70
2018,07,06,10,43,17.80
2018,07,06,10,44,17.80
2018,07,06,10,45,17.90
2018,07,06,10,46,17.90
2018,07,06,10,47,18.10
2018,07,06,10,48,18.20
2018,07,06,10,49,18.30
2018,07,06,10,50,18.40
2018,07,06,10,51,18.50
2018,07,06,10,52,18.50
2018,07,06,10,53,18.60
2018,07,06,10,54,18.60
2018,07,06,10,55,18.50
2018,07,06,10,56,18.50
2018,07,06,10,57,18.40
2018,07,06,10,58,18.40
2018,07,06,10,59,18.30
2018,07,06,11,00,18.30
2018,07,06,11,01,18.20
2018,07,06,11,02,18.20
2018,07,06,11,03,18.20
2018,07,06,11,04,18.20
2018,07,06,11,05,18.20
2018,07,06,11,06,18.10
2018,07,06,11,07,18.10
2018,07,06,11,08,18.10
2018,07,06,11,09,18.00
2018,07,06,11,10,18.00
2018,07,06,11,11,18.00
2018,07,06,11,12,17.90
2018,07,06,11,13,17.90
2018,07,06,11,14,17.90
2018,07,06,11,15,17.80
2018,07,06,11,16,17.80
2018,07,06,11,17,17.80
2018,07,06,11,18,17.80
2018,07,06,11,19,17.70
2018,07,06,11,20,17.70
2018,07,06,11,21,17.70
2018,07,06,11,22,17.70
2018,07,06,11,23,17.70
2018,07,06,11,24,17.70
2018,07,06,11,25,17.70
2018,07,06,11,26,17.80
2018,07,06,11,27,17.80
2018,07,06,11,28,17.80
2018,07,06,11,29,17.90
2018,07,06,11,30,17.90
2018,07,06,11,31,17.90
2018,07,06,11,32,17.90
2018,07,06,11,33,17.80
2018,07,06,11,34,17.70
2018,07,06,11,35,17.70
2018,07,06,11,36,17.60
2018,07,06,11,37,17.60
2018,07,06,11,38,17.60
2018,07,06,11,39,17.60
2018,07,06,11,40,17.60
2018,07,06,11,41,17.70
2018,07,06,11,42,17.70
2018,07,06,11,43,17.80
2018,07,06,11,44,17.80
2018,07,06,11,45,17.80
2018,07,06,11,46,17.80
2018,07,06,11,47,17.80
2018,07,06,11,48,17.80
2018,07,06,11,49,17.70
2018,07,06,11,50,17.80
2018,07,06,11,51,17.80
2018,07,06,11,52,17.80
2018,07,06,11,53,17.80
2018,07,06,11,54,17.80
2018,07,06,11,55,17.90
2018,07,06,11,56,18.00
2018,07,06,11,57,18.10
2018,07,06,11,58,18.20
2018,07,06,11,59,18.20
2018,07,06,12,00,18.20
2018,07,06,12,01,18.20
2018,07,06,12,02,18.30
2018,07,06,12,03,18.30
2018,07,06,12,04,18.40
2018,07,06,12,05,18.40
2018,07,06,12,06,18.40
2018,07,06,12,07,18.50
2018,07,06,12,08,18.50
2018,07,06,12,09,18.60
2018,07,06,12,10,18.60
2018,07,06,12,11,18.60
2018,07,06,12,12,18.60
2018,07,06,12,13,18.70
2018,07,06,12,14,18.80
2018,07,06,12,15,18.80
2018,07,06,12,16,18.90
2018,07,06,12,17,18.90
2018,07,06,12,18,19.00
2018,07,06,12,19,19.10
2018,07,06,12,20,19.10
2018,07,06,12,21,19.20
2018,07,06,12,22,19.20
2018,07,06,12,23,19.20
2018,07,06,12,24,19.30
2018,07,06,12,25,19.30
2018,07,06,12,26,19.30
2018,07,06,12,27,19.30
2018,07,06,12,28,19.30
2018,07,06,12,29,19.30
2018,07,06,12,30,19.30
2018,07,06,12,31,19.30
2018,07,06,12,32,19.30
2018,07,06,12,33,19.30
2018,07,06,12,34,19.40
2018,07,06,12,35,19.40
2018,07,06,12,36,19.40
2018,07,06,12,37,19.40
2018,07,06,12,38,19.40
2018,07,06,12,39,19.40
2018,07,06,12,40,19.40
2018,07,06,12,41,19.50
2018,07,06,12,42,19.50
2018,07,06,12,43,19.60
2018,07,06,12,44,19.70
2018,07,06,12,45,19.80
2018,07,06,12,46,19.90
2018,07,06,12,47,20.00
2018,07,06,12,48,20.10
2018,07,06,12,49,20.20
2018,07,06,12,50,20.30
2018,07,06,12,51,20.30
2018,07,06,12,52,20.30
2018,07,06,12,53,20.30
2018,07,06,12,54,20.30
2018,07,06,12,55,20.30
2018,07,06,12,56,20.40
2018,07,06,12,57,20.40
2018,07,06,12,58,20.40
2018,07,06,12,59,20.40
2018,07,06,13,00,20.40
2018,07,06,13,01,20.40
2018,07,06,13,02,20.30
2018,07,06,13,03,20.30
2018,07,06,13,04,20.20
2018,07,06,13,05,20.20
2018,07,06,13,06,20.20
2018,07,06,13,07,20.20
2018,07,06,13,08,20.30
2018,07,06,13,09,20.30
2018,07,06,13,10,20.40
2018,07,06,13,11,20.50
2018,07,06,13,12,20.50
2018,07,06,13,13,20.60
2018,07,06,13,14,20.60
2018,07,06,13,15,20.60
2018,07,06,13,16,20.60
2018,07,06,13,17,20.50
2018,07,06,13,18,20.60
2018,07,06,13,19,20.60
2018,07,06,13,20,20.60
2018,07,06,13,21,20.60
2018,07,06,13,22,20.60
2018,07,06,13,23,20.70
2018,07,06,13,24,20.70
2018,07,06,13,25,20.70
2018,07,06,13,26,20.70
2018,07,06,13,27,20.70
2018,07,06,13,28,20.70
2018,07,06,13,29,20.80
2018,07,06,13,30,20.80
2018,07,06,13,31,20.90
2018,07,06,13,32,20.90
2018,07,06,13,33,20.90
2018,07,06,13,34,20.90
2018,07,06,13,35,20.90
2018,07,06,13,36,20.90
2018,07,06,13,37,20.80
2018,07,06,13,38,20.70
2018,07,06,13,39,20.70
2018,07,06,13,40,20.70
2018,07,06,13,41,20.70
2018,07,06,13,42,20.70
2018,07,06,13,43,20.70
2018,07,06,13,44,20.70
2018,07,06,13,45,20.70
2018,07,06,13,46,20.80
2018,07,06,13,47,20.90
2018,07,06,13,48,21.00
2018,07,06,13,49,21.10
2018,07,06,13,50,21.20
2018,07,06,13,51,21.20
2018,07,06,13,52,21.20
2018,07,06,13,53,21.20
2018,07,06,13,54,21.30
2018,07,06,13,55,21.40
2018,07,06,13,56,21.40
2018,07,06,13,57,21.40
2018,07,06,13,58,21.40
2018,07,06,13,59,21.40
2018,07,06,14,00,21.40
2018,07,06,14,01,21.50
2018,07,06,14,02,21.60
2018,07,06,14,03,21.70
2018,07,06,14,04,21.90
2018,07,06,14,05,22.00
2018,07,06,14,06,22.10
2018,07,06,14,07,22.20
2018,07,06,14,08,22.20
2018,07,06,14,09,22.10
2018,07,06,14,10,22.10
2018,07,06,14,11,22.10
2018,07,06,14,12,22.10
2018,07,06,14,13,22.00
2018,07,06,14,14,22.00
2018,07,06,14,15,22.00
2018,07,06,14,16,22.00
2018,07,06,14,17,22.20
2018,07,06,14,18,22.20
2018,07,06,14,19,22.30
2018,07,06,14,20,22.20
2018,07,06,14,21,22.10
2018,07,06,14,22,22.00
2018,07,06,14,23,21.90
2018,07,06,14,24,21.80
2018,07,06,14,25,21.70
2018,07,06,14,26,21.70
2018,07,06,14,27,21.60
2018,07,06,14,28,21.50
2018,07,06,14,29,21.50
2018,07,06,14,30,21.50
2018,07,06,14,31,21.50
2018,07,06,14,32,21.50
2018,07,06,14,33,21.50
2018,07,06,14,34,21.40
2018,07,06,14,35,21.30
2018,07,06,14,36,21.30
2018,07,06,14,37,21.10
2018,07,06,14,38,20.90
2018,07,06,14,39,20.70
2018,07,06,14,40,20.40
2018,07,06,14,41,20.20
2018,07,06,14,42,20.00
2018,07,06,14,43,19.90
2018,07,06,14,44,19.80
2018,07,06,14,45,19.80
2018,07,06,14,46,19.80
2018,07,06,14,47,19.80
2018,07,06,14,48,19.80
2018,07,06,14,49,19.80
2018,07,06,14,50,19.90
2018,07,06,14,51,20.00
2018,07,06,14,52,20.10
2018,07,06,14,53,20.30
2018,07,06,14,54,20.40
2018,07,06,14,55,20.50
2018,07,06,14,56,20.60
2018,07,06,14,57,20.80
2018,07,06,14,58,20.90
2018,07,06,14,59,21.10
2018,07,06,15,00,21.20
2018,07,06,15,01,21.20
2018,07,06,15,02,21.20
2018,07,06,15,03,21.10
2018,07,06,15,04,21.10
2018,07,06,15,05,21.10
2018,07,06,15,06,21.10
2018,07,06,15,07,21.20
2018,07,06,15,08,21.30
2018,07,06,15,09,21.40
2018,07,06,15,10,21.50
2018,07,06,15,11,21.50
2018,07,06,15,12,21.50
2018,07,06,15,13,21.60
2018,07,06,15,14,21.60
2018,07,06,15,15,21.70
2018,07,06,15,16,21.70
2018,07,06,15,17,21.60
2018,07,06,15,18,21.60
2018,07,06,15,19,21.60
2018,07,06,15,20,21.60
2018,07,06,15,21,21.70
2018,07,06,15,22,21.70
2018,07,06,15,23,21.80
2018,07,06,15,24,21.80
2018,07,06,15,25,21.80
2018,07,06,15,26,21.90
2018,07,06,15,27,22.00
2018,07,06,15,28,22.20
2018,07,06,15,29,22.30
2018,07,06,15,30,22.50
2018,07,06,15,31,22.50
2018,07,06,15,32,22.60
2018,07,06,15,33,22.60
2018,07,06,15,34,22.60
2018,07,06,15,35,22.60
2018,07,06,15,36,22.60
2018,07,06,15,37,22.70
2018,07,06,15,38,22.80
2018,07,06,15,39,22.80
2018,07,06,15,40,22.80
2018,07,06,15,41,22.90
2018,07,06,15,42,22.90
2018,07,06,15,43,22.80
2018,07,06,15,44,22.80
2018,07,06,15,45,22.70
2018,07,06,15,46,22.70
2018,07,06,15,47,22.70
2018,07,06,15,48,22.70
2018,07,06,15,49,22.70
2018,07,06,15,50,22.70
2018,07,06,15,51,22.70
2018,07,06,15,52,22.70
2018,07,06,15,53,22.60
2018,07,06,15,54,22.60
2018,07,06,15,55,22.60
2018,07,06,15,56,22.60
2018,07,06,15,57,22.70
2018,07,06,15,58,22.70
2018,07,06,15,59,22.70
2018,07,06,16,00,22.70
2018,07,06,16,01,22.70
2018,07,06,16,02,22.70
2018,07,06,16,03,22.60
2018,07,06,16,04,22.50
2018,07,06,16,05,22.30
2018,07,06,16,06,22.10
2018,07,06,16,07,22.00
2018,07,06,16,08,21.90
2018,07,06,16,09,21.80
2018,07,06,16,10,22.00
2018,07,06,16,11,22.10
2018,07,06,16,12,22.20
2018,07,06,16,13,22.30
2018,07,06,16,14,22.20
2018,07,06,16,15,22.20
2018,07,06,16,16,22.20
2018,07,06,16,17,22.20
2018,07,06,16,18,22.20
2018,07,06,16,19,22.20
2018,07,06,16,20,22.20
2018,07,06,16,21,22.10
2018,07,06,16,22,22.10
2018,07,06,16,23,22.10
2018,07,06,16,24,22.20
2018,07,06,16,25,22.20
2018,07,06,16,26,22.20
2018,07,06,16,27,22.40
2018,07,06,16,28,22.50
2018,07,06,16,29,22.50
2018,07,06,16,30,22.40
2018,07,06,16,31,22.30
2018,07,06,16,32,22.20
2018,07,06,16,33,22.20
2018,07,06,16,34,22.00
2018,07,06,16,35,21.90
2018,07,06,16,36,21.80
2018,07,06,16,37,21.80
2018,07,06,16,38,21.80
2018,07,06,16,39,21.80
2018,07,06,16,40,21.90
2018,07,06,16,41,21.90
2018,07,06,16,42,22.00
2018,07,06,16,43,22.10
2018,07,06,16,44,22.30
2018,07,06,16,45,22.40
2018,07,06,16,46,22.40
2018,07,06,16,47,22.50
2018,07,06,16,48,22.50
2018,07,06,16,49,22.50
2018,07,06,16,50,22.50
2018,07,06,16,51,22.50
2018,07,06,16,52,22.50
2018,07,06,16,53,22.40
2018,07,06,16,54,22.30
2018,07,06,16,55,22.30
2018,07,06,16,56,22.30
2018,07,06,16,57,22.20
2018,07,06,16,58,22.10
2018,07,06,16,59,22.00
2018,07,06,17,00,22.00
2018,07,06,17,01,21.90
2018,07,06,17,02,21.70
2018,07,06,17,03,21.70
2018,07,06,17,04,21.70
2018,07,06,17,05,21.80
2018,07,06,17,06,21.80
2018,07,06,17,07,21.70
2018,07,06,17,08,21.70
2018,07,06,17,09,21.70
2018,07,06,17,10,21.60
2018,07,06,17,11,21.50
2018,07,06,17,12,21.40
2018,07,06,17,13,21.20
2018,07,06,17,14,21.10
2018,07,06,17,15,21.00
2018,07,06,17,16,20.90
2018,07,06,17,17,20.90
2018,07,06,17,18,20.90
2018,07,06,17,19,20.90